Regional Weather Roundup
Issued by NWS Northern Indiana

Home | Current Version | Previous Version | Text Only | Print | Product List | Glossary Off
Versions: 1 2 3 4 5 6 7 8 9 10 11 12 13 14 15 16 17 18 19 20 21 22 23 24 25 26 27 28 29 30 31 32 33 34 35 36 37 38 39 40 41 42 43 44 45 46 47 48 49 50

000
ASUS43 KIWX 220400
RWRIWX

KIWX WEATHER ROUNDUP
NATIONAL WEATHER SERVICE NORTHERN INDIANA
1200 AM EDT MON SEP 22 2014

NOTE: "FAIR" INDICATES FEW OR NO CLOUDS BELOW 12,000 FEET WITH NO
SIGNIFICANT WEATHER AND/OR OBSTRUCTIONS TO VISIBILITY.

* THESE STATIONS ARE NOT UNDER NWS QUALITY CONTROL. THEY ALSO MAY NOT
  REPORT WEATHER SUCH AS PRECIPITATION OR FOG.

INZ001>027-220500-
NORTHERN INDIANA

CITY           SKY/WX    TMP DP  RH WIND       PRES   REMARKS
VALPARAISO     MOCLDY    54  47  77 N5        30.11S
KNOX*          PTCLDY    50  46  88 N5        30.10S
SOUTH BEND     PTCLDY    52  45  77 N10       30.10S
GOSHEN         CLEAR    N/A N/A N/A N14       30.09R
WARSAW*        CLEAR     50  45  81 N7        30.09R
ANGOLA*        PTCLDY    48  39  71 N10       30.07R
FORT WAYNE     PTCLDY    51  45  79 NW8       30.09R
PERU/GRISSOM   CLEAR     53  52  96 N6        30.10R

$$
INZ028>050-220500-
CENTRAL INDIANA

CITY           SKY/WX    TMP DP  RH WIND       PRES   REMARKS
LAFAYETTE      CLOUDY    56  50  80 N7        30.11R
KOKOMO*        PTCLDY    54  46  76 N7        30.10R
MUNCIE*        CLEAR     51  47  86 W7        30.09R
INDIANAPOLIS   CLOUDY    58  48  69 N12       30.09R

$$
MIZ043>046-050>051-056>058-064>065-071>073-077>080-220500-
SOUTHWEST LOWER MICHIGAN

CITY           SKY/WX    TMP DP  RH WIND       PRES   REMARKS
BATTLE CREEK   CLOUDY    49  39  68 N12       30.09R
BENTON HARBOR  MOCLDY    53  43  68 VRB5G18   30.11R
COLDWATER*     CLOUDY    50  42  75 NW9G16    30.07R
HILLSDALE*     CLOUDY    49  43  78 N10G22    30.06R
HOLLAND        CLOUDY    49  40  71 N7        30.13R
GRAND RAPIDS   CLOUDY    48  39  71 N7        30.10R
KALAMAZOO      CLEAR     46  39  76 NW10      30.10R
STURGIS*       CLEAR     46  41  81 N9G20     30.08R
THREE RIVERS*  FAIR      48  40  74 N9        30.10R

$$
OHZ001>008-015>018-024>025-220500-
NORTHWEST OHIO

CITY           SKY/WX    TMP DP  RH WIND       PRES   REMARKS
DEFIANCE       CLEAR    N/A N/A N/A NW13      30.05R
FINDLAY        CLOUDY    56  49  77 NW7       30.02R
TOLEDO EXPRESS CLOUDY    54  47  77 NW13G18   30.02R
TOLEDO METCALF CLOUDY    55  47  74 N10       30.02R
LIMA           CLOUDY    57  48  72 NW8       30.03R

$$
AND FOR LAKE MICHIGAN COASTAL AND OPEN LAKE BUOY OBSERVATIONS

STATION/POSITION TEMP    WIND        PRES    VSBY  WAVE
                 AIR SEA DIR/SP/G                  HT/PER
                 (F)     (DEG/KT/KT) (MB)    (MI)  (FT/S)
CALUMET HARBOR    57     340/  8/ 17 1018.8R
MICHIGAN CITY     57     350/ 21/ 25   N/A
SAINT JOSEPH      56     350/ 16/ 24 1020.3S
SOUTH LAKE BUOY   55 61  350/ 19/ 23 1019.7R         7/ 6
4 MI NW BRIDGMAN  57 65   10/ 19/ 27   N/A           9/ 6
MICHIGAN CITY     58 64   10/ 16/ 21   N/A           7/ 7

$$
&&



USA.gov is the U.S. government's official web portal to all federal, state and local government web resources and services.